Volver al catálogo

NOAA 16 DEB

ActivoSSO
NORAD 41532·DEBRIS·🇺🇸 United States

Lanzado Sep 21, 2000 desde Vandenberg Space Force Base

Loading…

Próximos Pases (próximas 24 horas)

TLE

ActualizadoSource: Space-Track

Época: Sep 13, 2026, 17:28 UTC

1 41532U 00055NG  26256.72806283  .00002941  00000-0  10512-2 0  9999
2 41532  98.7410 358.5381 0009176 252.9300 107.0879 14.34847766538999

Sigue NOAA 16 DEB en tiempo real con AllMySat

Download on the App Store